Regional Weather Roundup
Issued by NWS

Home | Current Version | Previous Version | Graphics & Text | Print | Product List | Glossary On
Versions: 1 2 3 4 5 6 7 8 9 10 11 12 13 14 15 16 17 18 19 20 21 22 23 24 25 26 27 28 29 30 31 32 33 34 35 36 37 38 39 40 41 42 43 44 45 46 47 48 49 50
000
ASUS45 KBOU 091807
RWRCO

WEATHER ROUNDUP FOR COLORADO
NATIONAL WEATHER SERVICE DENVER/BOULDER CO
1100 AM MST FRI DEC 09 2016

NOTE: "FAIR" INDICATES FEW OR NO CLOUDS BELOW 12000 FEET WITH NO
SIGNIFICANT WEATHER AND/OR OBSTRUCTIONS TO VISIBILITY.

COZ001>005-013-030-031-091900-
...NORTHWEST COLORADO...

CITY           SKY/WX    TMP DP  RH WIND       PRES   REMARKS
CRAIG          CLOUDY    34  24  67 NE5       30.24S WCI  30
HAYDEN         CLOUDY    28  21  74 SE6       30.24S WCI  22
MEEKER         CLOUDY    36  22  56 W5        30.26S
MOUNT WERNER   NOT AVBL
STEAMBOAT SPGS CLOUDY    21  18  87 CALM      30.24S
WALDEN           N/A     32  23  69 SW16G22   30.17S WCI  21
$$

COZ006>008-011-091900-
...WEST CENTRAL VALLEYS...

CITY           SKY/WX    TMP DP  RH WIND       PRES   REMARKS
GRAND JUNCTION CLOUDY    30  15  53 CALM      30.35S
MONTROSE       CLOUDY    33  18  53 NW3       30.34R
EAGLE          CLOUDY    34  25  69 E5        30.30S WCI  30
RIFLE          CLOUDY    30  17  58 SE3       30.34R
DELTA          CLOUDY    36  15  43 CALM      30.34S
NUCLA          CLOUDY    37  21  52 NW3       30.37S
$$

COZ017>023-064>068-091900-
...SOUTHWEST COLORADO...

CITY           SKY/WX    TMP DP  RH WIND       PRES   REMARKS
DURANGO        FAIR      37  15  40 VRB3      30.34S
CORTEZ         FAIR      42  23  46 VRB3      30.34F
PAGOSA SPRINGS FAIR      35  16  46 CALM      30.33F
TELLURIDE      CLOUDY    35  26  67 CALM      30.36S
WOLF CREEK PAS FAIR      19  19 100 SW10G17   30.37S WCI   8
$$

COZ009-010-012-014-032>034-037-058>063-091900-
...CENTRAL COLORADO...

CITY           SKY/WX    TMP DP  RH WIND       PRES   REMARKS
ASPEN          NOT AVBL
BUENA VISTA    FAIR      43  18  37 W15G22    30.19S
COPPER MTN     NOT AVBL
BERTHOUD PASS  SNOW      14   3  62 W30G43    30.17R VSB 1/2 WCI  -7
COTTONWOOD PAS FAIR      36  19  51 W22G40    30.16F
GUNNISON       PTSUNNY   23  17  78 CALM      30.34F
KREMMLING      CLOUDY    37  28  70 SW12      30.24S
LEADVILLE      CLOUDY    26  19  74 N12G21    30.23R WCI  16
MONARCH PASS   CLOUDY    19  18  93 W46       30.34S WCI  -3
SALIDA         FAIR      46  23  40 W24G33    30.27S
SUNLIGHT       LGT SNOW  23  21  93 SW10G22   30.31S WCI  12
WILKERSON PASS FAIR      27  18  69 W18G35    30.18R WCI  13
$$

COZ069>075-091900-
...SAN LUIS VALLEY/SANGRE DE CRISTO MOUNTAINS...

CITY           SKY/WX    TMP DP  RH WIND       PRES   REMARKS
ALAMOSA        FAIR      30  13  49 CALM      30.28F
LA VETA PASS   FAIR      28  18  64 NE26G40   30.21F WCI  13
SAGUACHE       FAIR      32  14  47 CALM      30.29F
$$

COZ035-036-038>040-091900-
...NORTHERN COLORADO FRONT RANGE...

CITY           SKY/WX    TMP DP  RH WIND       PRES   REMARKS
DENVER INTL AP FAIR      49  25  39 VRB7      30.09S
DMNS CITY PARK   N/A     42  20  42 SE7       30.08F
AURORA         MOSUNNY   48  27  43 SE10      30.10S
FRONT RANGE AP NOT AVBL
ERIE MUNI ARPT FAIR      30  20  66 CALM      30.09F
BOULDER MUN AP FAIR      30  19  64 NW3       30.07F
CENTENNIAL     FAIR      46  26  45 SE9       30.10S
BROOMFIELD     MOSUNNY   46  25  42 SW15G29   30.09S
FORT COLLINS   FAIR      19  10  68 CALM      30.09F
LONGMONT       FAIR      27  12  55 N5        30.11F WCI  21
$$

COZ041-046-047-076>085-087-088-091900-
...PIKES PEAK/PALMER DIVIDE AND SOUTHERN FOOTHILLS...

CITY           SKY/WX    TMP DP  RH WIND       PRES   REMARKS
COLO. SPRINGS  FAIR      41  24  51 E8        30.13F
A. F. ACADEMY  SUNNY     45  23  42 S6        30.11F
SCHRIEVER AFB  NOT AVBL
ELLICOTT       LGT RAIN N/A N/A N/A W8        30.11F
FALCON         FAIR      47  20  35 W9        30.13F
FORT CARSON    FAIR      40  24  52 E3        30.11F
LIMON          FAIR      27  14  58 CALM      30.13F
MONUMENT HILL  FAIR      45  21  39 CALM      30.13F
TRINIDAD       FAIR      51  20  29 CALM      30.16F
$$

COZ042>045-048>051-090-091-091900-
...NORTHEAST COLORADO...

CITY           SKY/WX    TMP DP  RH WIND       PRES   REMARKS
GREELEY ARPT   FAIR      20  10  65 CALM      30.12F
AKRON          FAIR      19   9  65 W5        30.12F WCI  12
BURLINGTON     FAIR      32  17  54 S16       30.16F WCI  21
WRAY           NOT AVBL
STERLING       FAIR      21  12  68 SW5       30.16F WCI  15
HOLYOKE        FAIR      27  14  59 S7        30.20F WCI  19
FORT MORGAN    FAIR      24  11  58 W5        30.14S WCI  18
$$

COZ086-089-092>099-091900-
...SOUTHEAST COLORADO...

CITY           SKY/WX    TMP DP  RH WIND       PRES   REMARKS
PUEBLO         FAIR      29  12  49 SW5       30.15F WCI  24
LA JUNTA       FAIR      27   8  44 S3        30.20F
LAMAR          FAIR      26   9  48 W5        30.22F WCI  20
SPRINGFIELD      N/A     34  19  54 CALM      30.18F
$$



USA.gov is the U.S. government's official web portal to all federal, state and local government web resources and services.